Tracking 29489 objects as of 9-Sep-2024
HD Live streaming from Space Station
objects crossing your sky now

FENGYUN 1C DEB

Track FENGYUN 1C DEB now!
10-day predictions


NORAD ID: 30625
Int'l Code: 1999-025ANG
Perigee: 772.6 km
Apogee: 861.8 km
Inclination: 98.9 °
Period: 101.1 minutes
Semi major axis: 7188 km
RCS: 0.017 m2 (small)
Launch date: May 10, 1999
Source: People's Republic of China (PRC)
Launch site: Taiyaun Space Center, China (TSC)

Note: This is SATELLITE DEBRIS
Your satellite tracking list
Your tracking list is empty




NASA's NSSDC Master Catalog

Two Line Element Set (TLE):
1 30625U 99025ANG 24252.79689856  .00026326  00000-0  11105-1 0  9992
2 30625  98.9239 187.9232 0062042 205.2456 154.5687 14.24525422901005
Source of the keplerian elements: AFSPC